User: anonymous   Login
Location: Elk Horn Observatory
(36.6768°N, 80.8309°W)
Time: 13:36:31
(UTC-05:00)
Language:

Tiangong 2 - Orbit

View from above orbital plane
View from above orbital plane
View from above satellite
View from above satellite

Ground track
Ground track

The orbit data is extracted from the following two-line orbital elements,

1 41765U 16057A   19054.50521100  .00003537  00000-0  45814-4 0  9999
2 41765  42.7841 284.7830 0007562 208.6490 219.4061 15.60751573139277
Epoch (UTC): 23 February 2019 12:07:30
Eccentricity: 0.0007562
inclination: 42.7841°
perigee height: 380 km
apogee height: 390 km
right ascension of ascending node: 284.7830°
argument of perigee: 208.6490°
revolutions per day: 15.60751573
mean anomaly at epoch: 219.4061°
orbit number at epoch: 13927

The dashed part of the orbit path shows where the satellite is in the earth's shadow,  

DLR